Вернуться в каталог

ET-001C

АктивенSSO
NORAD 69942·PAYLOAD·🇺🇸 United States

Запущен Jul 7, 2026 с Vandenberg Space Force Base

Loading…

Ближайшие Пролёты (ближайшие 24 часа)

TLE

СвежийSource: Space-Track

Эпоха: Sep 13, 2026, 17:39 UTC

1 69942U 26156CB  26256.73569158  .00003489  00000-0  34547-3 0  9995
2 69942  97.7430 156.0784 0006795 290.9432  69.1059 14.92475300 10207

Отслеживайте ET-001C в реальном времени с AllMySat

Download on the App Store